Retour au catalogue

OPS 9437

DSCS 2-7

ActifMilitaireGEO
NORAD 10000·PAYLOAD·🇺🇸 United States

Lancé May 12, 1977 depuis Cape Canaveral Space Force Station

Loading…

TLE

FraisSource: Space-Track

Époque: Sep 14, 2026, 12:26 UTC

1 10000U 77034A   26257.51813107 -.00000106  00000-0  00000-0 0  9998
2 10000   7.8478 291.6291 0020504   1.2080 358.6875  0.96673597166400

Suivez OPS 9437 en temps réel avec AllMySat

Download on the App Store